Flag for United Kingdom Weather past 2 weeks in Sunderland, England, United Kingdom

Now
52 °F

Clear.


Feels Like: 51 °F
Forecast: 58 / 69 °F
Wind: 3 mph from Southwest

Location: Newcastle

Current Time: Aug 2, 2015 at 4:06:19 AM

Latest Report: Aug 2, 2015 at 3:20 AM


Visibility: 10 mi

Pressure: 29.98 "Hg

Humidity: 88%

Dew point: 48 °F

Location of SunderlandLocation

Historic Weather in Sunderland — Graph

°F

Sunderland temperature yesterday

Maximum temperature yesterday: 66 °F (at 2:50 PM)
Minimum temperature yesterday: 50 °F (at 5:20 AM)
Average temperature yesterday: 57 °F

Past Weeks' High & Low Weather Summary

 TemperatureHumidityPressure
High66 °F (Jul 21, 3:20 PM)100% (Jul 20, 6:20 AM)30.09 "Hg (Jul 20, 6:20 AM)
Low43 °F (Jul 26, 4:50 AM)42% (Aug 1, 5:50 PM)29.36 "Hg (Jul 27, 12:50 AM)
Average55 °F79%29.79 "Hg
* Reported Jul 18 2:50 AM — Aug 2 2:50 AM, Sunderland, Weather by CustomWeather, © 2015

Note: Actual official high and low records may vary slightly from our data, if they occured in-between our weather recording intervals... More about our weather records

Advertising

Sunderland weather history for previous 24 hours

 ConditionsComfort  
Time TempWeatherWind HumidityBarometerVisibility
2:50 AM
Sun, Aug 2
52 °FClear.3 mph82%29.98 "Hg10 mi
2:20 AM52 °FClear.2 mph82%29.98 "Hg10 mi
1:50 AM52 °FClear.2 mph82%29.95 "Hg10 mi
1:20 AM52 °FClear.5 mph82%29.95 "Hg10 mi
12:20 AM52 °FPassing clouds.5 mph77%29.95 "HgN/A
11:50 PM
Sat, Aug 1
52 °FClear.3 mph77%29.95 "Hg10 mi
10:20 PM54 °FClear.5 mph72%29.95 "Hg10 mi
9:20 PM54 °FPassing clouds.5 mph72%29.92 "HgN/A
8:50 PM55 °FPassing clouds.9 mph67%29.92 "HgN/A
8:20 PM55 °FPassing clouds.8 mph67%29.89 "HgN/A
7:50 PM57 °FPassing clouds.8 mph63%29.89 "HgN/A
7:20 PM59 °FPassing clouds.12 mph55%29.89 "HgN/A
6:50 PM61 °FPassing clouds.16 mph52%29.86 "HgN/A
6:20 PM63 °FPassing clouds.14 mph45%29.86 "HgN/A
5:50 PM63 °FPassing clouds.15 mph42%29.86 "HgN/A
5:20 PM64 °FPassing clouds.16 mph43%29.83 "HgN/A
4:50 PM64 °FPassing clouds.16 mph46%29.83 "HgN/A
4:20 PM64 °FPassing clouds.14 mph43%29.83 "HgN/A
3:50 PM66 °FPassing clouds.15 mph43%29.86 "HgN/A
3:20 PM64 °FPassing clouds.16 mph43%29.83 "HgN/A
2:50 PM66 °FScattered clouds.15 mph43%29.83 "HgN/A
2:20 PM64 °FScattered clouds.15 mph43%29.83 "HgN/A
1:50 PM64 °FScattered clouds.15 mph43%29.83 "HgN/A
1:20 PM64 °FScattered clouds.17 mph49%29.83 "HgN/A
12:50 PM63 °FScattered clouds.12 mph52%29.83 "HgN/A
12:20 PM63 °FScattered clouds.12 mph59%29.83 "HgN/A
11:50 AM59 °FScattered clouds.12 mph63%29.86 "HgN/A
10:50 AM61 °FScattered clouds.8 mph72%29.86 "HgN/A
10:20 AM57 °FScattered clouds.8 mph77%29.86 "HgN/A
9:50 AM55 °FScattered showers. Scattered clouds.8 mph88%29.86 "HgN/A
9:20 AM54 °FSprinkles. Partly sunny.8 mph88%29.83 "HgN/A
8:50 AM55 °FScattered showers. Partly sunny.7 mph88%29.83 "HgN/A
8:20 AM55 °FPassing clouds.3 mph94%29.83 "HgN/A
7:50 AM57 °FPassing clouds.5 mph88%29.83 "HgN/A
7:20 AM55 °FPassing clouds.5 mph88%29.83 "HgN/A
6:50 AM52 °FSunny.2 mph94%29.83 "Hg10 mi
6:20 AM50 °FSunny.3 mph94%29.83 "Hg10 mi
5:50 AM50 °FClear.2 mph94%29.83 "Hg10 mi
5:20 AM50 °FClear.5 mph94%29.83 "Hg10 mi
4:50 AM52 °FPassing clouds.2 mph94%29.83 "HgN/A
4:20 AM52 °FScattered showers. Passing clouds.3 mph94%29.83 "HgN/A
Weather by CustomWeather, © 2015

See weather overviewHow to use our weather pages